{"data":{"norad_id":28413,"intl_designator":"2004-035A","name":"SHIJIAN-6 01A (SJ-6 01A)","alt_names":[],"object_type":"PAYLOAD","status":"ACTIVE","operator":null,"country":"PRC","launch_date":"2004-09-08","launch_site_code":"TAISC","launch_vehicle":null,"mission":null,"orbit_class":"UNKNOWN","rcs_meters":1.237,"size_class":null,"mass_kg":null,"dimensions":null,"purposes":[],"wikipedia_slug":null,"has_3d_model":false,"image_url":null,"decayed_at":null,"tle_current":{"epoch":"2026-05-25T00:36:58.775328Z","epoch_age_seconds":79797,"freshness":"FRESH","line1":"1 28413U 04035A   26145.02568027  .00007107  00000+0  35671-3 0  9997","line2":"2 28413  97.5880 172.0737 0005618 200.2351 159.8661 15.17607516183958","mean_motion":15.17607516,"eccentricity":0.0005618,"inclination_deg":97.588,"raan_deg":172.0737,"arg_perigee_deg":200.2351,"mean_anomaly_deg":159.8661,"bstar":0.00035671,"rev_number":18395,"period_min":94.886193223097,"perigee_km":509.20221906913,"apogee_km":516.94518341305,"semimajor_km":6891.2107012411,"source":"CELESTRAK","updated_at":"2026-05-25T13:37:55.060934Z"}}}